Location: Erlenbrunn
(49.1717°N, 7.6142°E)
Time: 03:15:43
(UTC+00:00)

COSMO-SKYMED 1 - Pass Details

Date: 25 November 2020
Orbit: 621 x 623 km, 97.9° (Epoch: 24 January)

Event Time Altitude Azimuth Distance (km) Brightness Sun altitude
Exits shadow 17:11:01 17° 36° (NE) 1,573 4.2 -14.8°
Maximum altitude 17:13:54 38° 97° (E) 958 3.1 -15.2°
Drops below altitude 10° 17:17:56 10° 166° (SSE) 1,990 5.2 -15.9°
Sets 17:20:15 0° 175° (S) 2,892 6.1 -16.2°
